Terminal Aerodrome Forecast
Issued by NWS Paducah, KY

Home | Current Version | Previous Version | Graphics & Text | Print | Product List | Glossary On
Versions: 1 2 3 4 5 6 7 8 9 10 11 12
000
FTUS43 KPAH 012320
TAFPAH
TAF
KPAH 012320Z 0200/0224 VRB03KT P6SM SCT050
     FM020500 VRB02KT P6SM SCT250
      TEMPO 0209/0212 5SM BR
     FM021400 18006KT P6SM SCT250=

USA.gov is the U.S. government's official web portal to all federal, state and local government web resources and services.